Year,Month,Day,Hour,Minute,Value (Times are PST for temperature in C)
2012,07,14,00,00,18.50
2012,07,14,00,01,18.50
2012,07,14,00,02,18.50
2012,07,14,00,03,18.60
2012,07,14,00,04,18.60
2012,07,14,00,05,18.60
2012,07,14,00,06,18.70
2012,07,14,00,07,18.70
2012,07,14,00,08,18.70
2012,07,14,00,09,18.70
2012,07,14,00,10,18.80
2012,07,14,00,11,18.80
2012,07,14,00,12,18.80
2012,07,14,00,13,18.80
2012,07,14,00,14,18.80
2012,07,14,00,15,18.80
2012,07,14,00,16,18.80
2012,07,14,00,17,18.80
2012,07,14,00,18,18.80
2012,07,14,00,19,18.80
2012,07,14,00,20,18.80
2012,07,14,00,21,18.80
2012,07,14,00,22,18.80
2012,07,14,00,23,18.80
2012,07,14,00,24,18.80
2012,07,14,00,25,18.80
2012,07,14,00,26,18.80
2012,07,14,00,27,18.80
2012,07,14,00,28,18.80
2012,07,14,00,29,18.80
2012,07,14,00,30,18.80
2012,07,14,00,31,18.80
2012,07,14,00,32,18.90
2012,07,14,00,33,18.90
2012,07,14,00,34,18.90
2012,07,14,00,35,19.00
2012,07,14,00,36,19.00
2012,07,14,00,37,19.10
2012,07,14,00,38,19.20
2012,07,14,00,39,19.20
2012,07,14,00,40,19.30
2012,07,14,00,41,19.40
2012,07,14,00,42,19.40
2012,07,14,00,43,19.50
2012,07,14,00,44,19.60
2012,07,14,00,45,19.70
2012,07,14,00,46,19.70
2012,07,14,00,47,19.80
2012,07,14,00,48,19.90
2012,07,14,00,49,19.90
2012,07,14,00,50,20.00
2012,07,14,00,51,20.10
2012,07,14,00,52,20.10
2012,07,14,00,53,20.20
2012,07,14,00,54,20.20
2012,07,14,00,55,20.30
2012,07,14,00,56,20.30
2012,07,14,00,57,20.30
2012,07,14,00,58,20.40
2012,07,14,00,59,20.40
2012,07,14,01,00,20.40
2012,07,14,01,01,20.40
2012,07,14,01,02,20.50
2012,07,14,01,03,20.50
2012,07,14,01,04,20.50
2012,07,14,01,05,20.60
2012,07,14,01,06,20.60
2012,07,14,01,07,20.60
2012,07,14,01,08,20.60
2012,07,14,01,09,20.60
2012,07,14,01,10,20.50
2012,07,14,01,11,20.50
2012,07,14,01,12,20.50
2012,07,14,01,13,20.50
2012,07,14,01,14,20.50
2012,07,14,01,15,20.50
2012,07,14,01,16,20.50
2012,07,14,01,17,20.50
2012,07,14,01,18,20.50
2012,07,14,01,19,20.50
2012,07,14,01,20,20.50
2012,07,14,01,21,20.50
2012,07,14,01,22,20.50
2012,07,14,01,23,20.50
2012,07,14,01,24,20.50
2012,07,14,01,25,20.50
2012,07,14,01,26,20.50
2012,07,14,01,27,20.50
2012,07,14,01,28,20.50
2012,07,14,01,29,20.50
2012,07,14,01,30,20.50
2012,07,14,01,31,20.50
2012,07,14,01,32,20.50
2012,07,14,01,33,20.60
2012,07,14,01,34,20.60
2012,07,14,01,35,20.60
2012,07,14,01,36,20.60
2012,07,14,01,37,20.60
2012,07,14,01,38,20.60
2012,07,14,01,39,20.60
2012,07,14,01,40,20.60
2012,07,14,01,41,20.60
2012,07,14,01,42,20.60
2012,07,14,01,43,20.50
2012,07,14,01,44,20.50
2012,07,14,01,45,20.50
2012,07,14,01,46,20.50
2012,07,14,01,47,20.50
2012,07,14,01,48,20.50
2012,07,14,01,49,20.50
2012,07,14,01,50,20.50
2012,07,14,01,51,20.50
2012,07,14,01,52,20.50
2012,07,14,01,53,20.60
2012,07,14,01,54,20.60
2012,07,14,01,55,20.60
2012,07,14,01,56,20.50
2012,07,14,01,57,20.60
2012,07,14,01,58,20.50
2012,07,14,01,59,20.50
2012,07,14,02,00,20.50
2012,07,14,02,01,20.50
2012,07,14,02,02,20.50
2012,07,14,02,03,20.50
2012,07,14,02,04,20.50
2012,07,14,02,05,20.50
2012,07,14,02,06,20.50
2012,07,14,02,07,20.50
2012,07,14,02,08,20.50
2012,07,14,02,09,20.50
2012,07,14,02,10,20.50
2012,07,14,02,11,20.50
2012,07,14,02,12,20.50
2012,07,14,02,13,20.40
2012,07,14,02,14,20.40
2012,07,14,02,15,20.40
2012,07,14,02,16,20.40
2012,07,14,02,17,20.40
2012,07,14,02,18,20.40
2012,07,14,02,19,20.40
2012,07,14,02,20,20.50
2012,07,14,02,21,20.50
2012,07,14,02,22,20.50
2012,07,14,02,23,20.50
2012,07,14,02,24,20.60
2012,07,14,02,25,20.60
2012,07,14,02,26,20.60
2012,07,14,02,27,20.60
2012,07,14,02,28,20.60
2012,07,14,02,29,20.60
2012,07,14,02,30,20.60
2012,07,14,02,31,20.60
2012,07,14,02,32,20.60
2012,07,14,02,33,20.60
2012,07,14,02,34,20.60
2012,07,14,02,35,20.60
2012,07,14,02,36,20.60
2012,07,14,02,37,20.60
2012,07,14,02,38,20.60
2012,07,14,02,39,20.60
2012,07,14,02,40,20.60
2012,07,14,02,41,20.60
2012,07,14,02,42,20.60
2012,07,14,02,43,20.60
2012,07,14,02,44,20.60
2012,07,14,02,45,20.60
2012,07,14,02,46,20.60
2012,07,14,02,47,20.60
2012,07,14,02,48,20.60
2012,07,14,02,49,20.60
2012,07,14,02,50,20.60
2012,07,14,02,51,20.60
2012,07,14,02,52,20.60
2012,07,14,02,53,20.60
2012,07,14,02,54,20.60
2012,07,14,02,55,20.60
2012,07,14,02,56,20.60
2012,07,14,02,57,20.60
2012,07,14,02,58,20.60
2012,07,14,02,59,20.60
2012,07,14,03,00,20.60
2012,07,14,03,01,20.60
2012,07,14,03,02,20.60
2012,07,14,03,03,20.60
2012,07,14,03,04,20.50
2012,07,14,03,05,20.50
2012,07,14,03,06,20.50
2012,07,14,03,07,20.50
2012,07,14,03,08,20.50
2012,07,14,03,09,20.50
2012,07,14,03,10,20.40
2012,07,14,03,11,20.40
2012,07,14,03,12,20.40
2012,07,14,03,13,20.40
2012,07,14,03,14,20.40
2012,07,14,03,15,20.40
2012,07,14,03,16,20.30
2012,07,14,03,17,20.30
2012,07,14,03,18,20.30
2012,07,14,03,19,20.30
2012,07,14,03,20,20.30
2012,07,14,03,21,20.30
2012,07,14,03,22,20.30
2012,07,14,03,23,20.30
2012,07,14,03,24,20.30
2012,07,14,03,25,20.30
2012,07,14,03,26,20.30
2012,07,14,03,27,20.30
2012,07,14,03,28,20.30
2012,07,14,03,29,20.30
2012,07,14,03,30,20.30
2012,07,14,03,31,20.30
2012,07,14,03,32,20.20
2012,07,14,03,33,20.20
2012,07,14,03,34,20.20
2012,07,14,03,35,20.20
2012,07,14,03,36,20.20
2012,07,14,03,37,20.20
2012,07,14,03,38,20.20
2012,07,14,03,39,20.20
2012,07,14,03,40,20.20
2012,07,14,03,41,20.20
2012,07,14,03,42,20.20
2012,07,14,03,43,20.20
2012,07,14,03,44,20.20
2012,07,14,03,45,20.20
2012,07,14,03,46,20.20
2012,07,14,03,47,20.20
2012,07,14,03,48,20.20
2012,07,14,03,49,20.10
2012,07,14,03,50,20.10
2012,07,14,03,51,20.10
2012,07,14,03,52,20.10
2012,07,14,03,53,20.00
2012,07,14,03,54,20.00
2012,07,14,03,55,20.00
2012,07,14,03,56,19.90
2012,07,14,03,57,19.90
2012,07,14,03,58,19.90
2012,07,14,03,59,19.90
2012,07,14,04,00,19.80
2012,07,14,04,01,19.80
2012,07,14,04,02,19.80
2012,07,14,04,03,19.80
2012,07,14,04,04,19.80
2012,07,14,04,05,19.80
2012,07,14,04,06,19.70
2012,07,14,04,07,19.70
2012,07,14,04,08,19.70
2012,07,14,04,09,19.70
2012,07,14,04,10,19.70
2012,07,14,04,11,19.70
2012,07,14,04,12,19.60
2012,07,14,04,13,19.60
2012,07,14,04,14,19.60
2012,07,14,04,15,19.60
2012,07,14,04,16,19.60
2012,07,14,04,17,19.60
2012,07,14,04,18,19.60
2012,07,14,04,19,19.60
2012,07,14,04,20,19.60
2012,07,14,04,21,19.60
2012,07,14,04,22,19.60
2012,07,14,04,23,19.60
2012,07,14,04,24,19.70
2012,07,14,04,25,19.70
2012,07,14,04,26,19.70
2012,07,14,04,27,19.70
2012,07,14,04,28,19.70
2012,07,14,04,29,19.70
2012,07,14,04,30,19.70
2012,07,14,04,31,19.70
2012,07,14,04,32,19.70
2012,07,14,04,33,19.70
2012,07,14,04,34,19.70
2012,07,14,04,35,19.70
2012,07,14,04,36,19.70
2012,07,14,04,37,19.70
2012,07,14,04,38,19.70
2012,07,14,04,39,19.70
2012,07,14,04,40,19.70
2012,07,14,04,41,19.70
2012,07,14,04,42,19.70
2012,07,14,04,43,19.70
2012,07,14,04,44,19.70
2012,07,14,04,45,19.70
2012,07,14,04,46,19.70
2012,07,14,04,47,19.60
2012,07,14,04,48,19.60
2012,07,14,04,49,19.60
2012,07,14,04,50,19.60
2012,07,14,04,51,19.50
2012,07,14,04,52,19.50
2012,07,14,04,53,19.50
2012,07,14,04,54,19.40
2012,07,14,04,55,19.40
2012,07,14,04,56,19.40
2012,07,14,04,57,19.40
2012,07,14,04,58,19.40
2012,07,14,04,59,19.30
2012,07,14,05,00,19.30
2012,07,14,05,01,19.30
2012,07,14,05,02,19.30
2012,07,14,05,03,19.30
2012,07,14,05,04,19.20
2012,07,14,05,05,19.20
2012,07,14,05,06,19.20
2012,07,14,05,07,19.20
2012,07,14,05,08,19.20
2012,07,14,05,09,19.10
2012,07,14,05,10,19.10
2012,07,14,05,11,19.10
2012,07,14,05,12,19.00
2012,07,14,05,13,19.00
2012,07,14,05,14,19.00
2012,07,14,05,15,19.00
2012,07,14,05,16,18.90
2012,07,14,05,17,18.90
2012,07,14,05,18,18.90
2012,07,14,05,19,18.90
2012,07,14,05,20,18.90
2012,07,14,05,21,18.90
2012,07,14,05,22,18.80
2012,07,14,05,23,18.80
2012,07,14,05,24,18.80
2012,07,14,05,25,18.80
2012,07,14,05,26,18.80
2012,07,14,05,27,18.80
2012,07,14,05,28,18.70
2012,07,14,05,29,18.70
2012,07,14,05,30,18.70
2012,07,14,05,31,18.70
2012,07,14,05,32,18.70
2012,07,14,05,33,18.70
2012,07,14,05,34,18.70
2012,07,14,05,35,18.70
2012,07,14,05,36,18.70
2012,07,14,05,37,18.70
2012,07,14,05,38,18.70
2012,07,14,05,39,18.70
2012,07,14,05,40,18.70
2012,07,14,05,41,18.70
2012,07,14,05,42,18.70
2012,07,14,05,43,18.70
2012,07,14,05,44,18.70
2012,07,14,05,45,18.70
2012,07,14,05,46,18.70
2012,07,14,05,47,18.70
2012,07,14,05,48,18.60
2012,07,14,05,49,18.60
2012,07,14,05,50,18.60
2012,07,14,05,51,18.60
2012,07,14,05,52,18.50
2012,07,14,05,53,18.50
2012,07,14,05,54,18.50
2012,07,14,05,55,18.40
2012,07,14,05,56,18.40
2012,07,14,05,57,18.40
2012,07,14,05,58,18.40
2012,07,14,05,59,18.40
2012,07,14,06,00,18.40
2012,07,14,06,01,18.30
2012,07,14,06,02,18.30
2012,07,14,06,03,18.30
2012,07,14,06,04,18.30
2012,07,14,06,05,18.30
2012,07,14,06,06,18.30
2012,07,14,06,07,18.30
2012,07,14,06,08,18.30
2012,07,14,06,09,18.30
2012,07,14,06,10,18.30
2012,07,14,06,11,18.30
2012,07,14,06,12,18.30
2012,07,14,06,13,18.30
2012,07,14,06,14,18.30
2012,07,14,06,15,18.30
2012,07,14,06,16,18.30
2012,07,14,06,17,18.30
2012,07,14,06,18,18.30
2012,07,14,06,19,18.30
2012,07,14,06,20,18.30
2012,07,14,06,21,18.30
2012,07,14,06,22,18.30
2012,07,14,06,23,18.30
2012,07,14,06,24,18.30
2012,07,14,06,25,18.30
2012,07,14,06,26,18.40
2012,07,14,06,27,18.40
2012,07,14,06,28,18.50
2012,07,14,06,29,18.60
2012,07,14,06,30,18.70
2012,07,14,06,31,18.80
2012,07,14,06,32,18.80
2012,07,14,06,33,18.90
2012,07,14,06,34,19.00
2012,07,14,06,35,19.10
2012,07,14,06,36,19.10
2012,07,14,06,37,19.20
2012,07,14,06,38,19.20
2012,07,14,06,39,19.30
2012,07,14,06,40,19.30
2012,07,14,06,41,19.30
2012,07,14,06,42,19.40
2012,07,14,06,43,19.40
2012,07,14,06,44,19.40
2012,07,14,06,45,19.50
2012,07,14,06,46,19.50
2012,07,14,06,47,19.50
2012,07,14,06,48,19.60
2012,07,14,06,49,19.60
2012,07,14,06,50,19.60
2012,07,14,06,51,19.70
2012,07,14,06,52,19.70
2012,07,14,06,53,19.70
2012,07,14,06,54,19.80
2012,07,14,06,55,19.80
2012,07,14,06,56,19.80
2012,07,14,06,57,19.90
2012,07,14,06,58,19.90
2012,07,14,06,59,19.90
2012,07,14,07,00,20.00
2012,07,14,07,01,20.00
2012,07,14,07,02,20.10
2012,07,14,07,03,20.10
2012,07,14,07,04,20.20
2012,07,14,07,05,20.20
2012,07,14,07,06,20.20
2012,07,14,07,07,20.30
2012,07,14,07,08,20.30
2012,07,14,07,09,20.40
2012,07,14,07,10,20.40
2012,07,14,07,11,20.50
2012,07,14,07,12,20.50
2012,07,14,07,13,20.50
2012,07,14,07,14,20.60
2012,07,14,07,15,20.60
2012,07,14,07,16,20.60
2012,07,14,07,17,20.60
2012,07,14,07,18,20.60
2012,07,14,07,19,20.60
2012,07,14,07,20,20.60
2012,07,14,07,21,20.70
2012,07,14,07,22,20.70
2012,07,14,07,23,20.80
2012,07,14,07,24,20.80
2012,07,14,07,25,20.90
2012,07,14,07,26,21.00
2012,07,14,07,27,21.00
2012,07,14,07,28,21.10
2012,07,14,07,29,21.10
2012,07,14,07,30,21.20
2012,07,14,07,31,21.20
2012,07,14,07,32,21.20
2012,07,14,07,33,21.10
2012,07,14,07,34,21.10
2012,07,14,07,35,21.00
2012,07,14,07,36,20.90
2012,07,14,07,37,20.80
2012,07,14,07,38,20.70
2012,07,14,07,39,20.70
2012,07,14,07,40,20.70
2012,07,14,07,41,20.70
2012,07,14,07,42,20.70
2012,07,14,07,43,20.70
2012,07,14,07,44,20.80
2012,07,14,07,45,20.80
2012,07,14,07,46,20.80
2012,07,14,07,47,20.80
2012,07,14,07,48,20.80
2012,07,14,07,49,20.80
2012,07,14,07,50,20.80
2012,07,14,07,51,20.70
2012,07,14,07,52,20.70
2012,07,14,07,53,20.70
2012,07,14,07,54,20.70
2012,07,14,07,55,20.70
2012,07,14,07,56,20.70
2012,07,14,07,57,20.60
2012,07,14,07,58,20.60
2012,07,14,07,59,20.60
2012,07,14,08,00,20.60
2012,07,14,08,01,20.50
2012,07,14,08,02,20.50
2012,07,14,08,03,20.50
2012,07,14,08,04,20.50
2012,07,14,08,05,20.40
2012,07,14,08,06,20.40
2012,07,14,08,07,20.40
2012,07,14,08,08,20.50
2012,07,14,08,09,20.50
2012,07,14,08,10,20.60
2012,07,14,08,11,20.60
2012,07,14,08,12,20.70
2012,07,14,08,13,20.70
2012,07,14,08,14,20.80
2012,07,14,08,15,20.90
2012,07,14,08,16,21.10
2012,07,14,08,17,21.20
2012,07,14,08,18,21.30
2012,07,14,08,19,21.40
2012,07,14,08,20,21.50
2012,07,14,08,21,21.50
2012,07,14,08,22,21.60
2012,07,14,08,23,21.70
2012,07,14,08,24,21.80
2012,07,14,08,25,21.80
2012,07,14,08,26,21.90
2012,07,14,08,27,21.90
2012,07,14,08,28,22.00
2012,07,14,08,29,22.00
2012,07,14,08,30,22.10
2012,07,14,08,31,22.20
2012,07,14,08,32,22.20
2012,07,14,08,33,22.30
2012,07,14,08,34,22.30
2012,07,14,08,35,22.30
2012,07,14,08,36,22.30
2012,07,14,08,37,22.20
2012,07,14,08,38,22.10
2012,07,14,08,39,22.00
2012,07,14,08,40,21.90
2012,07,14,08,41,21.90
2012,07,14,08,42,21.90
2012,07,14,08,43,21.90
2012,07,14,08,44,21.90
2012,07,14,08,45,21.90
2012,07,14,08,46,21.80
2012,07,14,08,47,21.80
2012,07,14,08,48,21.80
2012,07,14,08,49,21.80
2012,07,14,08,50,21.80
2012,07,14,08,51,21.90
2012,07,14,08,52,21.90
2012,07,14,08,53,22.00
2012,07,14,08,54,22.00
2012,07,14,08,55,22.10
2012,07,14,08,56,22.10
2012,07,14,08,57,22.10
2012,07,14,08,58,22.20
2012,07,14,08,59,22.20
2012,07,14,09,00,22.20
2012,07,14,09,01,22.20
2012,07,14,09,02,22.20
2012,07,14,09,03,22.20
2012,07,14,09,04,22.20
2012,07,14,09,05,22.20
2012,07,14,09,06,22.20
2012,07,14,09,07,22.20
2012,07,14,09,08,22.10
2012,07,14,09,09,22.00
2012,07,14,09,10,21.90
2012,07,14,09,11,21.80
2012,07,14,09,12,21.80
2012,07,14,09,13,21.70
2012,07,14,09,14,21.70
2012,07,14,09,15,21.70
2012,07,14,09,16,21.60
2012,07,14,09,17,21.60
2012,07,14,09,18,21.40
2012,07,14,09,19,21.30
2012,07,14,09,20,21.20
2012,07,14,09,21,21.10
2012,07,14,09,22,21.10
2012,07,14,09,23,21.00
2012,07,14,09,24,21.00
2012,07,14,09,25,20.90
2012,07,14,09,26,20.90
2012,07,14,09,27,20.90
2012,07,14,09,28,20.90
2012,07,14,09,29,20.90
2012,07,14,09,30,20.90
2012,07,14,09,31,21.00
2012,07,14,09,32,21.10
2012,07,14,09,33,21.10
2012,07,14,09,34,21.20
2012,07,14,09,35,21.20
2012,07,14,09,36,21.20
2012,07,14,09,37,21.10
2012,07,14,09,38,21.10
2012,07,14,09,39,21.00
2012,07,14,09,40,21.00
2012,07,14,09,41,21.00
2012,07,14,09,42,21.00
2012,07,14,09,43,21.00
2012,07,14,09,44,21.10
2012,07,14,09,45,21.10
2012,07,14,09,46,21.10
2012,07,14,09,47,21.20
2012,07,14,09,48,21.20
2012,07,14,09,49,21.20
2012,07,14,09,50,21.30
2012,07,14,09,51,21.30
2012,07,14,09,52,21.30
2012,07,14,09,53,21.40
2012,07,14,09,54,21.40
2012,07,14,09,55,21.50
2012,07,14,09,56,21.50
2012,07,14,09,57,21.60
2012,07,14,09,58,21.50
2012,07,14,09,59,21.50
2012,07,14,10,00,21.50
2012,07,14,10,01,21.40
2012,07,14,10,02,21.40
2012,07,14,10,03,21.40
2012,07,14,10,04,21.40
2012,07,14,10,05,21.40
2012,07,14,10,06,21.40
2012,07,14,10,07,21.40
2012,07,14,10,08,21.40
2012,07,14,10,09,21.40
2012,07,14,10,10,21.40
2012,07,14,10,11,21.40
2012,07,14,10,12,21.40
2012,07,14,10,13,21.40
2012,07,14,10,14,21.40
2012,07,14,10,15,21.50
2012,07,14,10,16,21.50
2012,07,14,10,17,21.50
2012,07,14,10,18,21.50
2012,07,14,10,19,21.60
2012,07,14,10,20,21.60
2012,07,14,10,21,21.70
2012,07,14,10,22,21.70
2012,07,14,10,23,21.70
2012,07,14,10,24,21.70
2012,07,14,10,25,21.70
2012,07,14,10,26,21.80
2012,07,14,10,27,21.80
2012,07,14,10,28,21.80
2012,07,14,10,29,21.80
2012,07,14,10,30,21.90
2012,07,14,10,31,22.00
2012,07,14,10,32,22.10
2012,07,14,10,33,22.20
2012,07,14,10,34,22.20
2012,07,14,10,35,22.30
2012,07,14,10,36,22.40
2012,07,14,10,37,22.40
2012,07,14,10,38,22.40
2012,07,14,10,39,22.40
2012,07,14,10,40,22.40
2012,07,14,10,41,22.30
2012,07,14,10,42,22.30
2012,07,14,10,43,22.20
2012,07,14,10,44,22.20
2012,07,14,10,45,22.20
2012,07,14,10,46,22.20
2012,07,14,10,47,22.30
2012,07,14,10,48,22.30
2012,07,14,10,49,22.30
2012,07,14,10,50,22.30
2012,07,14,10,51,22.30
2012,07,14,10,52,22.30
2012,07,14,10,53,22.40
2012,07,14,10,54,22.40
2012,07,14,10,55,22.40
2012,07,14,10,56,22.40
2012,07,14,10,57,22.40
2012,07,14,10,58,22.40
2012,07,14,10,59,22.40
2012,07,14,11,00,22.40
2012,07,14,11,01,22.40
2012,07,14,11,02,22.40
2012,07,14,11,03,22.40
2012,07,14,11,04,22.40
2012,07,14,11,05,22.40
2012,07,14,11,06,22.40
2012,07,14,11,07,22.40
2012,07,14,11,08,22.50
2012,07,14,11,09,22.50
2012,07,14,11,10,22.50
2012,07,14,11,11,22.60
2012,07,14,11,12,22.60
2012,07,14,11,13,22.70
2012,07,14,11,14,22.70
2012,07,14,11,15,22.70
2012,07,14,11,16,22.70
2012,07,14,11,17,22.80
2012,07,14,11,18,22.80
2012,07,14,11,19,22.90
2012,07,14,11,20,22.90
2012,07,14,11,21,22.80
2012,07,14,11,22,22.80
2012,07,14,11,23,22.70
2012,07,14,11,24,22.70
2012,07,14,11,25,22.60
2012,07,14,11,26,22.60
2012,07,14,11,27,22.60
2012,07,14,11,28,22.70
2012,07,14,11,29,22.80
2012,07,14,11,30,22.80
2012,07,14,11,31,22.80
2012,07,14,11,32,22.80
2012,07,14,11,33,22.90
2012,07,14,11,34,22.80
2012,07,14,11,35,22.80
2012,07,14,11,36,22.80
2012,07,14,11,37,22.70
2012,07,14,11,38,22.60
2012,07,14,11,39,22.60
2012,07,14,11,40,22.70
2012,07,14,11,41,22.70
2012,07,14,11,42,22.70
2012,07,14,11,43,22.80
2012,07,14,11,44,22.80
2012,07,14,11,45,22.80
2012,07,14,11,46,22.80
2012,07,14,11,47,22.80
2012,07,14,11,48,22.90
2012,07,14,11,49,23.00
2012,07,14,11,50,23.00
2012,07,14,11,51,23.00
2012,07,14,11,52,22.90
2012,07,14,11,53,22.90
2012,07,14,11,54,23.00
2012,07,14,11,55,23.00
2012,07,14,11,56,23.10
2012,07,14,11,57,23.20
2012,07,14,11,58,23.30
2012,07,14,11,59,23.30
2012,07,14,12,00,23.30
2012,07,14,12,01,23.30
2012,07,14,12,02,23.30
2012,07,14,12,03,23.30
2012,07,14,12,04,23.30
2012,07,14,12,05,23.30
2012,07,14,12,06,23.30
2012,07,14,12,07,23.30
2012,07,14,12,08,23.30
2012,07,14,12,09,23.30
2012,07,14,12,10,23.30
2012,07,14,12,11,23.30
2012,07,14,12,12,23.30
2012,07,14,12,13,23.30
2012,07,14,12,14,23.30
2012,07,14,12,15,23.40
2012,07,14,12,16,23.40
2012,07,14,12,17,23.40
2012,07,14,12,18,23.50
2012,07,14,12,19,23.50
2012,07,14,12,20,23.60
2012,07,14,12,21,23.60
2012,07,14,12,22,23.70
2012,07,14,12,23,23.70
2012,07,14,12,24,23.80
2012,07,14,12,25,23.80
2012,07,14,12,26,23.90
2012,07,14,12,27,23.90
2012,07,14,12,28,24.00
2012,07,14,12,29,24.10
2012,07,14,12,30,24.20
2012,07,14,12,31,24.20
2012,07,14,12,32,24.10
2012,07,14,12,33,24.10
2012,07,14,12,34,24.10
2012,07,14,12,35,24.10
2012,07,14,12,36,24.10
2012,07,14,12,37,24.10
2012,07,14,12,38,24.10
2012,07,14,12,39,24.10
2012,07,14,12,40,24.20
2012,07,14,12,41,24.30
2012,07,14,12,42,24.40
2012,07,14,12,43,24.50
2012,07,14,12,44,24.60
2012,07,14,12,45,24.60
2012,07,14,12,46,24.70
2012,07,14,12,47,24.80
2012,07,14,12,48,25.00
2012,07,14,12,49,25.10
2012,07,14,12,50,25.20
2012,07,14,12,51,25.30
2012,07,14,12,52,25.30
2012,07,14,12,53,25.30
2012,07,14,12,54,25.30
2012,07,14,12,55,25.20
2012,07,14,12,56,25.00
2012,07,14,12,57,24.90
2012,07,14,12,58,24.80
2012,07,14,12,59,24.80
2012,07,14,13,00,24.70
2012,07,14,13,01,24.60
2012,07,14,13,02,24.60
2012,07,14,13,03,24.60
2012,07,14,13,04,24.60
2012,07,14,13,05,24.60
2012,07,14,13,06,24.60
2012,07,14,13,07,24.60
2012,07,14,13,08,24.50
2012,07,14,13,09,24.50
2012,07,14,13,10,24.60
2012,07,14,13,11,24.60
2012,07,14,13,12,24.60
2012,07,14,13,13,24.60
2012,07,14,13,14,24.60
2012,07,14,13,15,24.70
2012,07,14,13,16,24.70
2012,07,14,13,17,24.80
2012,07,14,13,18,24.80
2012,07,14,13,19,24.80
2012,07,14,13,20,24.80
2012,07,14,13,21,24.80
2012,07,14,13,22,24.80
2012,07,14,13,23,24.80
2012,07,14,13,24,24.80
2012,07,14,13,25,24.80
2012,07,14,13,26,24.90
2012,07,14,13,27,24.90
2012,07,14,13,28,25.00
2012,07,14,13,29,25.10
2012,07,14,13,30,25.10
2012,07,14,13,31,25.20
2012,07,14,13,32,25.20
2012,07,14,13,33,25.20
2012,07,14,13,34,25.20
2012,07,14,13,35,25.20
2012,07,14,13,36,25.20
2012,07,14,13,37,25.20
2012,07,14,13,38,25.30
2012,07,14,13,39,25.30
2012,07,14,13,40,25.50
2012,07,14,13,41,25.60
2012,07,14,13,42,25.70
2012,07,14,13,43,25.90
2012,07,14,13,44,25.90
2012,07,14,13,45,25.90
2012,07,14,13,46,25.90
2012,07,14,13,47,25.90
2012,07,14,13,48,25.80
2012,07,14,13,49,25.90
2012,07,14,13,50,25.90
2012,07,14,13,51,25.90
2012,07,14,13,52,26.00
2012,07,14,13,53,26.10
2012,07,14,13,54,26.10
2012,07,14,13,55,26.20
2012,07,14,13,56,26.20
2012,07,14,13,57,26.20
2012,07,14,13,58,26.10
2012,07,14,13,59,26.10
2012,07,14,14,00,26.00
2012,07,14,14,01,26.00
2012,07,14,14,02,25.90
2012,07,14,14,03,25.90
2012,07,14,14,04,25.80
2012,07,14,14,05,25.80
2012,07,14,14,06,25.80
2012,07,14,14,07,25.70
2012,07,14,14,08,25.70
2012,07,14,14,09,25.70
2012,07,14,14,10,25.70
2012,07,14,14,11,25.70
2012,07,14,14,12,25.70
2012,07,14,14,13,25.70
2012,07,14,14,14,25.70
2012,07,14,14,15,25.70
2012,07,14,14,16,25.80
2012,07,14,14,17,25.70
2012,07,14,14,18,25.70
2012,07,14,14,19,25.70
2012,07,14,14,20,25.80
2012,07,14,14,21,25.80
2012,07,14,14,22,25.80
2012,07,14,14,23,25.90
2012,07,14,14,24,25.90
2012,07,14,14,25,25.90
2012,07,14,14,26,26.10
2012,07,14,14,27,26.20
2012,07,14,14,28,26.20
2012,07,14,14,29,26.20
2012,07,14,14,30,26.20
2012,07,14,14,31,26.30
2012,07,14,14,32,26.30
2012,07,14,14,33,26.30
2012,07,14,14,34,26.40
2012,07,14,14,35,26.50
2012,07,14,14,36,26.60
2012,07,14,14,37,26.60
2012,07,14,14,38,26.70
2012,07,14,14,39,26.70
2012,07,14,14,40,26.80
2012,07,14,14,41,26.80
2012,07,14,14,42,26.80
2012,07,14,14,43,26.80
2012,07,14,14,44,26.80
2012,07,14,14,45,26.90
2012,07,14,14,46,26.90
2012,07,14,14,47,27.00
2012,07,14,14,48,27.10
2012,07,14,14,49,27.10
2012,07,14,14,50,27.00
2012,07,14,14,51,26.90
2012,07,14,14,52,26.90
2012,07,14,14,53,26.80
2012,07,14,14,54,26.80
2012,07,14,14,55,26.80
2012,07,14,14,56,26.70
2012,07,14,14,57,26.70
2012,07,14,14,58,26.60
2012,07,14,14,59,26.50
2012,07,14,15,00,26.40
2012,07,14,15,01,26.40
2012,07,14,15,02,26.40
2012,07,14,15,03,26.50
2012,07,14,15,04,26.50
2012,07,14,15,05,26.60
2012,07,14,15,06,26.60
2012,07,14,15,07,26.70
2012,07,14,15,08,26.70
2012,07,14,15,09,26.70
2012,07,14,15,10,26.70
2012,07,14,15,11,26.70
2012,07,14,15,12,26.60
2012,07,14,15,13,26.60
2012,07,14,15,14,26.60
2012,07,14,15,15,26.60
2012,07,14,15,16,26.60
2012,07,14,15,17,26.70
2012,07,14,15,18,26.80
2012,07,14,15,19,26.80
2012,07,14,15,20,26.90
2012,07,14,15,21,26.90
2012,07,14,15,22,27.00
2012,07,14,15,23,27.00
2012,07,14,15,24,27.00
2012,07,14,15,25,26.90
2012,07,14,15,26,26.90
2012,07,14,15,27,26.90
2012,07,14,15,28,26.90
2012,07,14,15,29,26.90
2012,07,14,15,30,26.90
2012,07,14,15,31,26.90
2012,07,14,15,32,26.90
2012,07,14,15,33,26.90
2012,07,14,15,34,26.90
2012,07,14,15,35,27.00
2012,07,14,15,36,27.00
2012,07,14,15,37,27.00
2012,07,14,15,38,27.00
2012,07,14,15,39,27.00
2012,07,14,15,40,26.90
2012,07,14,15,41,26.90
2012,07,14,15,42,26.90
2012,07,14,15,43,26.90
2012,07,14,15,44,26.90
2012,07,14,15,45,26.90
2012,07,14,15,46,27.00
2012,07,14,15,47,27.00
2012,07,14,15,48,26.90
2012,07,14,15,49,26.90
2012,07,14,15,50,26.90
2012,07,14,15,51,27.00
2012,07,14,15,52,27.00
2012,07,14,15,53,27.10
2012,07,14,15,54,27.10
2012,07,14,15,55,27.10
2012,07,14,15,56,27.10
2012,07,14,15,57,27.10
2012,07,14,15,58,27.10
2012,07,14,15,59,27.10
2012,07,14,16,00,27.10
2012,07,14,16,01,27.10
2012,07,14,16,02,27.10
2012,07,14,16,03,27.20
2012,07,14,16,04,27.20
2012,07,14,16,05,27.20
2012,07,14,16,06,27.20
2012,07,14,16,07,27.20
2012,07,14,16,08,27.30
2012,07,14,16,09,27.30
2012,07,14,16,10,27.30
2012,07,14,16,11,27.30
2012,07,14,16,12,27.30
2012,07,14,16,13,27.30
2012,07,14,16,14,27.30
2012,07,14,16,15,27.30
2012,07,14,16,16,27.20
2012,07,14,16,17,27.20
2012,07,14,16,18,27.30
2012,07,14,16,19,27.30
2012,07,14,16,20,27.40
2012,07,14,16,21,27.40
2012,07,14,16,22,27.40
2012,07,14,16,23,27.50
2012,07,14,16,24,27.60
2012,07,14,16,25,27.70
2012,07,14,16,26,27.70
2012,07,14,16,27,27.70
2012,07,14,16,28,27.70
2012,07,14,16,29,27.70
2012,07,14,16,30,27.70
2012,07,14,16,31,27.70
2012,07,14,16,32,27.70
2012,07,14,16,33,27.70
2012,07,14,16,34,27.70
2012,07,14,16,35,27.70
2012,07,14,16,36,27.80
2012,07,14,16,37,27.80
2012,07,14,16,38,27.90
2012,07,14,16,39,28.00
2012,07,14,16,40,28.00
2012,07,14,16,41,28.00
2012,07,14,16,42,28.00
2012,07,14,16,43,27.90
2012,07,14,16,44,27.90
2012,07,14,16,45,27.80
2012,07,14,16,46,27.80
2012,07,14,16,47,27.70
2012,07,14,16,48,27.70
2012,07,14,16,49,27.70
2012,07,14,16,50,27.70
2012,07,14,16,51,27.70
2012,07,14,16,52,27.70
2012,07,14,16,53,27.70
2012,07,14,16,54,27.70
2012,07,14,16,55,27.70
2012,07,14,16,56,27.70
2012,07,14,16,57,27.70
2012,07,14,16,58,27.70
2012,07,14,16,59,27.70
2012,07,14,17,00,27.70
2012,07,14,17,01,27.70
2012,07,14,17,02,27.70
2012,07,14,17,03,27.70
2012,07,14,17,04,27.70
2012,07,14,17,05,27.60
2012,07,14,17,06,27.50
2012,07,14,17,07,27.40
2012,07,14,17,08,27.40
2012,07,14,17,09,27.40
2012,07,14,17,10,27.40
2012,07,14,17,11,27.40
2012,07,14,17,12,27.40
2012,07,14,17,13,27.40
2012,07,14,17,14,27.40
2012,07,14,17,15,27.40
2012,07,14,17,16,27.40
2012,07,14,17,17,27.40
2012,07,14,17,18,27.40
2012,07,14,17,19,27.40